COSMOS 1691 DEB, 43317

Orbit data source: Space-Track

COSMOS 1691 DEB, 43317 is space debris in LEO originally from a launch on Wed, 09 Oct 1985 UTC launched from the Plesetsk Missile And Space Complex (PKMTR). Debris objects in space refer to the collection of defunct objects orbiting the Earth. Examples of debris include non-operational satellites, rocket bodies, and fragments generated from explosions, collisions, or faulty payload assembly.

Loading next visibility...
Identifier
43317, 1985-094AB
Orbit
LEO
Country
Flag of CISCIS
Related business
Manufacturer
Unknown
Mission
Spacecraft
Bus & Motor
Unknown
Mass
Unknown
Launch date (UTC)
1985-10-09 (40 years ago)
Launch vehicle
Unknown
Launch site
Plesetsk Missile And Space Complex (PKMTR)
Object type
Payload
Rocket body
Debris
Shape & HBR
Unknown shape, 0.1 m
Radar Cross Section
Small (<0.1 m²)

Expand to show TLE details & history
Last TLE update: 3 days ago

TLE from 3 days ago
0 COSMOS 1691 DEB
1 43317U 85094AB  26035.02812811  .00000414  00000-0  18528-2 0  9998
2 43317  82.5571 137.9454 0016707 256.1133 103.8108 12.76742863568267
Epoch: 2026-02-04T00:40Z
TLE epoch observation values (Epoch: 2026-02-04T00:40:30.268Z)
Latitude
-0.00003°
Longitude
-6.38131°
Altitude
1,360.448 km
Speed
7.177 km/s
True Right ascension
09h 11m 46s
True Declination
0° 00' 00"
Sunlit
Object was in full shadow at epoch
Visualization orbit readout
Latitude
Unknown
Longitude
Unknown
Altitude
Unknown
Speed
Unknown
Apparent Right ascension
Unknown
Apparent Declination
Unknown
Sunlit
N/A
Visualization observer readout
Local Sidereal Time
17:09:01
Azimuth
Unknown
Elevation
Unknown
Doppler factor
Unknown
Orbital elements
Apogee altitude
1,364.809 km
Perigee altitude
1,338.98 km
Semi-major axis
7,730.032 km
Eccentricity
0.00167
Inclination
82.5571°
RAAN
137.9454°
Arg. of periapsis
256.1133°
True anomaly
103.99662°
Mean anomaly
103.8108°
Eccentric anomaly
103.90372°
Mean motion
3.19353 °/min
Orbital period
112.73 mins
BSTAR
0.0018528
Loading maneuver chart data...
Computing Atmospheric mass density...
Loading historical data...
Loading historical data...
Loading historical data...
Loading historical data...
Loading historical data...
Loading historical data...
Loading historical data...

Documentation

Showing up to 5 results
|